Location: Big Meadow
(36.7100°N, 118.8650°W)
Time: 03:53:49
(UTC-08:00)

Daily predictions for brighter satellites

Satellite Brightness Start Highest point End
(mag) Time Altitude Azimuth Time Altitude Azimuth Time Altitude Azimuth
Cosmos 2184 Rocket 4.4 04:05:37 10° S 04:11:38 59° E 04:17:42 10° NNE
Meteor 1-18 Rocket 4.2 04:26:08 86° NE 04:26:12 87° E 04:32:07 10° S
Feng Yun 1-1 Rocket 4.1 04:24:28 10° NNE 04:30:04 82° ESE 04:35:30 10° SSW
Thor Agena Rocket 3.9 04:31:03 10° S 04:34:45 50° S 04:34:45 50° S
Okean 1 Rocket 4.3 04:33:31 10° SSE 04:37:38 40° E 04:41:44 10° NNE
Cosmos 2056 Rocket 3.9 04:40:01 38° N 04:41:48 60° ENE 04:46:49 10° SSE
Cosmos 1238 Rocket 3.6 04:43:22 70° WSW 04:43:22 70° WSW 04:49:19 10° S
COSMO-SKYMED 1 3.9 04:41:24 10° SE 04:45:23 37° ENE 04:48:38 14° N
SL-16 R/B 4.5 04:50:56 10° N 04:50:56 10° N 04:50:58 10° N
Cosmos 1610 Rocket 4.5 04:41:25 10° S 04:47:35 82° E 04:53:51 10° N
Cosmos 1602 4.1 04:48:36 10° S 04:52:30 63° E 04:56:25 10° NNE
Cosmos 44 Rocket 3.3 04:52:43 65° WSW 04:53:18 73° WNW 04:58:27 10° NNE
Ariane Rocket 4.3 04:50:03 10° NNE 04:54:49 41° E 04:59:33 10° S
Cosmos 1624 Rocket 3.9 04:53:13 40° NNW 04:55:11 88° ENE 05:00:31 10° SSE
ASTRO E2 4.5 04:56:26 22° S 04:57:26 25° SSE 05:00:46 10° ESE
Cosmos 1371 Rocket 3.9 04:59:26 52° NW 05:00:31 66° WSW 05:05:42 10° S
Cosmos 1300 Rocket 3.4 04:57:13 10° S 05:01:39 79° W 05:06:04 10° N
USA 215 3.1 04:55:35 10° NE 05:02:08 83° NW 05:07:36 16° SW
Okean 1-7 Rocket 4.3 04:58:59 10° N 05:03:16 51° E 05:07:31 10° SSE
Lacrosse 5 2.0 05:03:20 50° NW 05:03:26 50° NW 05:08:24 10° NNE
Cosmos 192 4.2 05:00:15 15° SSW 05:04:16 66° WNW 05:09:10 10° NNE
USA 32 4.1 05:05:03 48° WNW 05:05:38 50° W 05:10:40 10° SSW
CENTAUR R/B 4.3 05:15:44 15° NNW 05:15:44 15° NNW 05:18:47 10° N
Meteor 1-11 Rocket 3.7 05:09:52 10° S 05:15:44 84° W 05:21:30 10° N
Cosmos 1346 Rocket 3.6 05:17:06 33° SW 05:17:06 33° SW 05:19:46 10° SSW
Tiangong 2 2.4 05:17:36 29° NNE 05:17:36 29° NNE 05:20:20 10° ENE
Nadezhda 3 Rocket 4.0 05:17:01 10° N 05:23:25 85° W 05:29:47 10° S
Cosmos 2084 4.3 05:22:57 10° SSW 05:26:43 45° ESE 05:30:23 10° NE
CSL-04 Rocket 4.0 05:21:18 10° NNE 05:26:50 69° ESE 05:32:17 10° S
Meteor 1-13 Rocket 4.3 05:22:55 10° NNW 05:28:50 64° W 05:34:39 10° S
Cosmos 1452 Rocket 3.8 05:25:44 10° NNW 05:31:01 71° ENE 05:36:16 10° SSE
SKYMED 2 3.6 05:29:07 10° S 05:33:22 58° W 05:37:15 13° NNW
USA 129 4.3 05:31:48 10° SE 05:33:30 21° ENE 05:35:14 10° NNE
Meteor 1-23 Rocket 4.5 05:28:10 10° N 05:33:43 69° E 05:39:15 10° SSE
Cosmos 962 Rocket 4.4 05:29:39 10° SSW 05:35:49 75° W 05:42:05 10° N
Meteor 2-13 Rocket 4.5 05:30:58 10° SSW 05:36:59 56° W 05:43:03 10° N
GPS 2-05 Rocket1 4.4 05:39:34 19° WSW 05:40:59 25° SSW 05:43:59 10° SE
Meteor 2-4 Rocket 3.7 05:35:57 10° N 05:41:31 85° W 05:47:13 10° S
Okean 2 4.2 05:38:15 10° N 05:42:21 53° E 05:46:25 10° SSE
Cosmos 2369 Rocket 2.2 05:38:16 10° NNW 05:43:59 76° WSW 05:49:39 10° SSE
Cosmos 2341 Rocket 4.0 05:41:15 10° SSW 05:47:26 60° W 05:53:37 10° N
Cosmos 44 3.8 05:42:24 10° SW 05:47:30 43° NW 05:52:28 10° NNE
Meteor 1-5 Rocket 4.1 05:42:58 10° S 05:48:21 88° E 05:53:40 10° N
Cosmos 1536 3.3 05:47:34 10° SSW 05:51:17 38° W 05:55:02 10° N
YAOGAN 3 4.5 05:48:07 10° N 05:52:30 82° WNW 05:56:51 10° SSW
SMAP 4.4 05:48:51 10° NNE 05:53:18 44° E 05:57:44 10° S
CZ-4 R/B 1.8 05:52:40 10° NNE 05:56:36 64° ESE 06:00:26 10° S
Cosmos 1025 Rocket 3.1 05:53:57 10° NNW 05:58:13 55° W 06:02:27 10° S
Cosmos 1633 4.0 05:55:49 10° WSW 05:58:23 18° WNW 06:00:57 10° NNW
Abrixas rocket 4.1 06:01:33 14° NW 06:02:48 17° NNW 06:05:06 10° NNE
PAYLOAD A 4.2 05:58:57 10° NNE 06:04:22 87° WNW 06:09:49 10° SSW
YAOGAN 1 3.4 06:01:02 10° NNE 06:05:17 54° E 06:09:31 10° S
Cosmos 1943 3.9 06:02:14 10° WSW 06:07:10 31° WNW 06:12:09 10° N
Cosmos 1269 Rocket 4.0 06:03:10 10° SSW 06:08:25 70° WNW 06:13:43 10° NNE
SJ-12 4.0 06:07:47 10° NNE 06:11:59 89° ESE 06:16:07 10° SSW
USA 229 DEB 3.9 06:10:10 10° SW 06:16:48 50° NW 06:23:33 10° NNE
USA 229 3.9 06:10:15 10° SW 06:16:54 51° NW 06:23:39 10° NNE
Cosmos 1544 Rocket 3.6 06:13:21 10° SSW 06:17:36 55° W 06:21:55 10° N
Meteor 2-19 Rocket 4.5 06:13:20 10° SSW 06:19:24 64° W 06:25:27 10° N
Lacrosse 4 Rocket 2.0 06:17:35 10° NNW 06:21:39 54° ENE 06:25:36 10° SE
COSMO-SKYMED 1 4.2 06:18:55 10° SW 06:21:39 16° W 06:24:23 10° NW
Cosmos 1943 Rocket 2.1 06:16:16 10° NNW 06:21:47 80° WSW 06:27:17 10° SSE
IRS-1A Rocket 4.4 06:16:33 10° N 06:22:09 57° WNW 06:27:50 10° SSW
Cosmos 1420 Rocket 4.0 06:18:56 10° NNW 06:24:07 64° WSW 06:29:14 10° S
ATLAS CENTAUR Rocket 3.7 06:23:21 10° W 06:28:40 24° SSW 06:31:54 10° SE
NOSS 3-1 (A) 4.0 06:25:53 10° SSW 06:31:33 64° ESE 06:37:47 10° NE
